Location: Asheville, NC
(35.6000°N, 82.5500°W)
Time: 10:57:08

CUTE-I - Pass Details

Date: 04 January 2018
Orbit: 812 x 824 km, 98.7° (Epoch: 22 March)

Event Time Altitude Azimuth Distance (km) Brightness Sun altitude
Rises 06:15:32 0° 22° (NNE) 3,337 ? -16.8°
Reaches altitude 10° 06:18:03 10° 31° (NNE) 2,401 ? -16.3°
Maximum altitude 06:22:58 38° 98° (E) 1,224 ? -15.3°
Drops below altitude 10° 06:27:51 10° 166° (SSE) 2,390 ? -14.4°
Sets 06:30:20 0° 174° (S) 3,319 ? -13.9°
